Temp
17 16 14 14 14 14 13 13 12 12 12 12 9 10 10 9 9 9 9 9 9 9 9 9 9 9 10 9 9 9 9 9 9 9 9 9 9 9 9 9 9 10 10
15 15 14 14 13 13 12 12 12 12 12 10 10 10 9 10 9 10 9 9 9 9 9 9 9 9 9 9 9 9 9 9 8 8 9 9 9 9 9 9 9 9 9
12 13 13 13 12 12 12 11 11 11 9 10 9 9 9 9 9 9 9 9 9 9 9 9 9 9 8 8 8 8 8 8 8 8 8 9 9 9 10 9 9 9 9
11 11 11 11 12 11 11 11 10 9 9 9 9 9 9 9 9 9 9 9 9 9 8 8 9 8 8 8 8 8 7 8 8 8 7 7 8 9 9 8 8 9 9
9 10 10 11 11 11 10 10 9 9 8 8 8 9 9 9 8 8 9 9 9 8 8 8 8 8 7 7 7 7 7 7 7 7 7 7 7 8 8 8 8 8 8
9 9 10 10 10 10 10 10 9 9 8 8 8 8 8 9 8 8 8 8 8 8 8 8 8 8 7 7 7 7 8 7 8 8 8 7 7 8 7 7 7 7 7
6 8 9 9 10 9 9 9 9 8 8 8 8 8 9 8 8 8 8 9 9 8 8 8 8 8 8 8 7 7 7 7 7 7 8 7 8 7 7 7 7 7 7
3 4 5 7 8 8 8 8 8 8 8 8 8 8 8 8 8 8 8 8 8 8 8 8 8 8 8 8 8 8 8 8 7 7 7 7 7 7 7 7 7 7 7
1 1 2 2 3 5 6 7 8 8 8 8 8 8 8 8 8 8 8 7 8 7 8 8 8 8 8 8 8 7 7 7 7 7 7 7 7 7 7 7 7 6 5
0 0 1 1 2 2 2 1 3 5 6 6 6 6 6 8 8 8 8 7 7 7 7 7 7 7 7 7 7 7 6 6 6 6 6 5 5 4 5 4 4 3 2
-0 -0 0 0 1 2 1 -0 -1 2 1 2 3 3 3 4 4 4 5 6 5 5 4 4 4 4 5 6 5 5 6 4 3 3 2 2 1 1 1 1 1 1 1
-1 -0 -0 -0 -0 0 1 0 -1 -1 1 0 2 4 3 2 3 2 3 3 2 2 3 2 2 1 2 3 2 2 1 0 -0 -0 -1 -1 -1 -1 -1 -1 -1 -2 -2
-2 -2 -2 -1 -0 -0 0 -1 0 1 -0 -0 0 -1 -1 0 2 -1 -0 -0 -0 1 0 -1 -0 -1 -1 -1 -2 -3 -3 -2 -2 -2 -2 -2 -3 -3 -3 -4 -4 -5 -5
-4 -3 -3 -3 -2 -1 -1 -1 -1 -2 -2 -0 -1 -2 -3 -3 -3 -2 -2 -3 -2 -3 -4 -5 -4 -4 -3 -3 -4 -4 -4 -4 -4 -5 -5 -6 -6 -5 -6 -6 -6 -7 -7
-6 -6 -6 -5 -4 -4 -3 -3 -3 -4 -5 -5 -5 -4 -5 -5 -6 -6 -5 -5 -6 -7 -7 -6 -5 -4 -5 -5 -5 -6 -7 -7 -8 -9 -9 -10 -9 -8 -8 -8 -8 -9 -8
-7 -7 -7 -7 -7 -7 -6 -6 -6 -5 -5 -5 -5 -5 -6 -7 -7 -7 -8 -8 -8 -7 -6 -7 -9 -9 -9 -9 -7 -7 -7 -7 -8 -8 -8 -8 -8 -9 -9 -9 -10 -10 -10
-8 -8 -8 -8 -8 -8 -8 -8 -8 -8 -6 -6 -7 -8 -8 -9 -9 -9 -8 -8 -8 -7 -7 -9 -10 -10 -10 -10 -9 -9 -9 -9 -9 -9 -9 -10 -10 -10 -10 -10 -11 -11 -12
-9 -9 -9 -9 -9 -9 -9 -9 -9 -9 -9 -9 -9 -8 -8 -8 -8 -9 -9 -8 -8 -8 -9 -10 -10 -11 -10 -10 -10 -10 -10 -10 -10 -10 -10 -10 -11 -11 -11 -11 -11 -11 -12
-9 -10 -10 -10 -10 -10 -10 -10 -10 -10 -10 -11 -11 -10 -10 -9 -9 -9 -9 -8 -10 -11 -11 -12 -12 -13 -13 -12 -13 -12 -12 -12 -12 -11 -11 -11 -12 -13 -12 -13 -13 -14 -13
-11 -10 -10 -10 -10 -10 -10 -10 -11 -11 -10 -10 -10 -11 -12 -10 -9 -10 -10 -11 -12 -13 -13 -13 -13 -13 -13 -13 -13 -14 -13 -13 -13 -13 -12 -13 -13 -14 -15 -15 -14 -15 -14
-11 -11 -11 -11 -11 -11 -11 -11 -12 -12 -11 -11 -11 -12 -12 -12 -12 -12 -12 -13 -14 -14 -14 -14 -14 -13 -14 -14 -14 -13 -13 -12 -13 -14 -14 -14 -16 -15 -16 -16 -16 -16 -16
-12 -12 -12 -12 -12 -12 -12 -12 -12 -13 -13 -13 -14 -14 -15 -14 -14 -14 -14 -15 -14 -14 -15 -14 -13 -14 -14 -14 -14 -14 -13 -13 -14 -14 -14 -16 -16 -16 -16 -17 -17 -17 -17
-13 -13 -13 -13 -13 -13 -13 -13 -13 -14 -14 -15 -15 -15 -15 -16 -16 -16 -16 -15 -14 -15 -14 -14 -14 -14 -14 -14 -14 -14 -14 -14 -14 -14 -15 -15 -17 -17 -17 -18 -18 -18 -17
-14 -14 -14 -14 -14 -14 -14 -14 -15 -15 -15 -16 -16 -17 -17 -18 -17 -17 -17 -17 -16 -16 -15 -15 -15 -15 -15 -15 -15 -15 -15 -15 -15 -15 -15 -16 -16 -17 -17 -18 -18 -18 -19
-15 -15 -15 -15 -15 -15 -15 -15 -16 -16 -16 -17 -17 -17 -18 -18 -18 -18 -17 -17 -16 -16 -16 -16 -16 -16 -16 -16 -16 -16 -16 -16 -16 -16 -17 -17 -17 -18 -19 -19 -19 -19 -19
-17 -16 -16 -16 -16 -16 -16 -16 -17 -17 -17 -18 -18 -18 -19 -19 -19 -19 -18 -17 -17 -17 -18 -17 -17 -17 -17 -16 -17 -17 -17 -17 -17 -17 -17 -18 -17 -18 -18 -19 -19 -19 -20
Height
1386 1391 1396 1404 1410 1415 1417 1422 1424 1423 1426 1430 1435 1439 1442 1445 1446 1451 1455 1459 1463 1467 1471 1473 1477 1481 1484 1488 1492 1494 1497 1501 1503 1506 1510 1514 1516 1518 1520 1521 1523 1524 1525
1383 1389 1395 1401 1408 1412 1414 1419 1418 1422 1425 1426 1431 1434 1438 1441 1443 1447 1450 1454 1459 1462 1466 1470 1473 1477 1480 1483 1486 1486 1489 1493 1496 1498 1502 1506 1509 1513 1514 1516 1517 1519 1520
1387 1392 1396 1400 1405 1408 1410 1412 1415 1419 1421 1425 1429 1432 1436 1439 1443 1445 1448 1451 1455 1458 1462 1465 1468 1471 1473 1475 1478 1480 1483 1487 1490 1491 1495 1499 1502 1505 1508 1509 1510 1512 1513
1387 1390 1393 1396 1400 1405 1407 1409 1412 1417 1420 1423 1428 1431 1434 1437 1440 1443 1445 1448 1452 1454 1457 1460 1463 1465 1468 1470 1473 1475 1479 1482 1484 1486 1488 1492 1495 1498 1501 1502 1502 1504 1504
1386 1389 1393 1396 1400 1402 1404 1407 1411 1416 1420 1422 1426 1429 1432 1435 1437 1440 1442 1445 1448 1451 1454 1456 1459 1461 1463 1466 1469 1471 1474 1478 1480 1482 1484 1486 1488 1491 1493 1495 1495 1496 1497
1386 1388 1390 1393 1395 1400 1403 1405 1410 1415 1419 1422 1424 1428 1430 1430 1434 1437 1440 1444 1447 1450 1452 1454 1456 1458 1460 1462 1465 1468 1471 1473 1475 1477 1478 1479 1482 1484 1486 1487 1487 1488 1488
1387 1388 1389 1390 1392 1398 1401 1403 1407 1412 1418 1421 1423 1424 1426 1428 1432 1435 1438 1441 1443 1445 1447 1449 1451 1451 1455 1458 1461 1464 1467 1467 1469 1471 1472 1473 1474 1475 1477 1478 1478 1478 1477
1392 1392 1391 1391 1392 1395 1399 1401 1403 1407 1414 1415 1417 1420 1422 1425 1429 1432 1435 1437 1438 1441 1442 1444 1446 1448 1450 1453 1454 1456 1457 1459 1460 1461 1463 1464 1465 1467 1468 1468 1469 1469 1469
1403 1401 1399 1398 1395 1393 1396 1399 1401 1402 1408 1411 1414 1416 1416 1418 1424 1428 1430 1431 1433 1435 1437 1438 1440 1441 1443 1446 1447 1448 1449 1451 1452 1453 1454 1455 1457 1458 1459 1460 1459 1460 1460
1413 1410 1407 1407 1404 1397 1399 1402 1399 1398 1404 1406 1407 1410 1412 1412 1420 1423 1424 1425 1426 1428 1430 1431 1433 1434 1436 1438 1439 1440 1441 1444 1445 1445 1447 1447 1448 1449 1451 1452 1450 1451 1454
1420 1420 1415 1415 1404 1405 1407 1411 1410 1401 1405 1405 1407 1408 1409 1413 1414 1418 1418 1418 1420 1421 1423 1426 1427 1428 1428 1429 1432 1432 1433 1437 1438 1439 1442 1442 1444 1445 1445 1448 1447 1448 1449
1423 1421 1419 1421 1414 1407 1414 1417 1416 1413 1407 1413 1408 1406 1411 1416 1414 1415 1419 1416 1419 1420 1419 1422 1422 1426 1426 1427 1429 1429 1431 1434 1435 1437 1440 1441 1442 1443 1444 1445 1445 1447 1447
1427 1427 1428 1423 1422 1418 1414 1414 1419 1410 1415 1413 1410 1414 1417 1415 1412 1420 1416 1421 1423 1421 1423 1424 1424 1427 1428 1426 1427 1429 1432 1434 1435 1437 1438 1441 1441 1442 1443 1444 1444 1445 1446
1434 1429 1427 1425 1421 1420 1419 1416 1414 1415 1422 1416 1420 1420 1423 1421 1419 1419 1422 1426 1421 1426 1429 1428 1427 1428 1427 1427 1429 1430 1432 1434 1436 1439 1440 1441 1442 1443 1443 1444 1444 1445 1444
1437 1435 1432 1429 1429 1426 1422 1422 1420 1425 1427 1422 1426 1423 1428 1427 1428 1428 1427 1428 1429 1435 1432 1426 1427 1428 1429 1430 1431 1433 1434 1435 1439 1440 1442 1443 1443 1444 1445 1445 1445 1446 1446
1440 1439 1438 1439 1436 1433 1431 1430 1430 1429 1430 1429 1430 1432 1430 1433 1434 1434 1432 1432 1433 1432 1426 1428 1431 1432 1433 1434 1434 1436 1437 1438 1440 1441 1442 1443 1445 1445 1445 1446 1447 1446 1445
1443 1442 1442 1440 1439 1438 1435 1434 1434 1435 1433 1435 1436 1439 1438 1438 1437 1437 1436 1436 1432 1430 1427 1431 1434 1437 1436 1435 1437 1438 1440 1440 1441 1442 1442 1443 1445 1446 1445 1445 1446 1446 1447
1447 1446 1445 1444 1443 1441 1440 1441 1442 1441 1441 1442 1442 1442 1442 1440 1439 1439 1437 1435 1433 1432 1433 1434 1436 1438 1438 1438 1439 1440 1441 1441 1441 1442 1442 1443 1444 1445 1445 1445 1445 1446 1446
1450 1449 1449 1447 1446 1445 1445 1443 1441 1442 1442 1442 1443 1443 1443 1441 1440 1439 1436 1433 1435 1436 1437 1438 1438 1439 1439 1440 1440 1441 1442 1442 1442 1442 1442 1443 1444 1444 1445 1444 1446 1446 1445
1452 1451 1448 1447 1447 1447 1445 1443 1443 1442 1441 1441 1442 1443 1443 1441 1439 1438 1437 1438 1438 1439 1439 1439 1440 1440 1440 1441 1441 1441 1441 1442 1442 1443 1443 1445 1444 1444 1444 1445 1446 1445 1443
1455 1454 1452 1451 1450 1449 1447 1448 1447 1444 1444 1445 1445 1444 1444 1442 1441 1440 1440 1439 1439 1440 1440 1440 1440 1440 1440 1440 1440 1441 1441 1441 1442 1443 1444 1445 1445 1445 1445 1444 1444 1443 1443
1457 1456 1454 1453 1452 1450 1449 1449 1449 1448 1449 1449 1448 1446 1444 1443 1442 1440 1439 1439 1439 1439 1439 1439 1439 1441 1441 1441 1440 1439 1440 1443 1443 1443 1443 1443 1443 1443 1444 1443 1442 1442 1440
1456 1455 1454 1453 1452 1451 1450 1450 1450 1449 1449 1448 1447 1445 1443 1443 1442 1440 1440 1439 1439 1439 1440 1441 1441 1441 1440 1439 1439 1441 1442 1442 1442 1443 1441 1441 1442 1442 1442 1441 1441 1439 1438
1457 1457 1456 1455 1454 1453 1453 1451 1450 1449 1448 1448 1446 1446 1445 1444 1443 1442 1440 1440 1441 1441 1440 1440 1442 1441 1439 1440 1441 1441 1441 1441 1442 1441 1441 1441 1440 1440 1440 1439 1438 1438 1436
1457 1456 1455 1454 1454 1453 1453 1451 1450 1449 1449 1448 1448 1448 1447 1445 1443 1442 1441 1441 1439 1439 1439 1440 1441 1441 1441 1440 1439 1439 1439 1440 1441 1440 1440 1439 1438 1438 1437 1436 1435 1435 1434
1455 1454 1453 1453 1452 1451 1451 1450 1449 1448 1448 1447 1447 1446 1445 1444 1443 1441 1440 1440 1440 1440 1440 1441 1441 1440 1438 1438 1438 1439 1439 1439 1438 1438 1438 1437 1435 1434 1434 1433 1432 1432 1431
Wind_Speed
24 33 33 34 34 29 28 29 26 28 24 18 22 24 25 26 25 23 24 26 26 26 24 32 38 33 37 38 39 42 42 40 36 31 29 29 26 17 24 23 24 27 30
25 32 34 32 33 27 28 27 29 26 22 16 20 19 26 22 23 21 20 23 24 25 25 23 31 40 36 35 39 42 39 39 37 40 34 32 32 34 24 25 26 29 31
11 20 27 32 33 29 26 25 23 20 19 18 18 18 20 22 23 22 21 22 18 18 21 22 24 26 29 32 33 33 34 33 36 38 36 32 33 32 34 34 32 33 31
13 17 28 34 25 27 25 24 19 20 21 18 17 15 17 18 21 22 22 23 22 21 21 22 23 24 25 26 27 25 27 29 33 34 33 34 35 33 27 28 31 32 33
13 17 24 29 26 26 22 22 18 19 21 21 20 17 16 16 16 15 17 16 16 15 15 15 16 17 17 18 18 21 23 23 23 24 28 32 34 33 36 38 38 39 35
12 16 20 24 23 22 22 19 18 19 19 20 20 17 13 21 19 17 16 13 11 11 12 13 12 11 14 17 17 17 21 23 23 25 27 29 27 27 29 29 30 29 29
13 14 16 18 23 24 22 21 20 19 17 19 19 22 21 19 17 17 17 15 14 18 18 17 18 20 19 19 22 24 25 29 28 27 27 23 28 31 30 29 32 30 30
23 15 13 15 19 22 23 25 25 25 24 25 25 24 23 22 20 20 19 20 22 21 18 20 23 22 22 23 24 24 25 28 32 35 35 37 40 37 34 33 37 43 45
33 31 25 15 9 14 17 23 28 28 27 26 26 25 23 22 21 20 19 22 22 23 25 28 25 22 23 22 19 20 20 19 20 20 23 27 29 30 31 33 31 30 32
27 25 24 24 24 22 14 11 14 21 22 22 22 18 17 18 21 24 24 25 25 25 25 24 27 29 29 29 28 26 23 22 22 23 25 23 25 24 26 25 23 22 19
20 18 20 18 20 22 22 17 18 20 17 18 14 12 7 4 2 7 11 13 15 16 14 12 10 12 13 14 14 13 13 16 14 14 12 11 10 9 10 10 9 8 9
16 16 17 15 17 18 15 13 15 16 17 14 15 11 9 8 6 9 6 6 6 7 8 6 4 3 3 2 2 5 7 7 5 4 2 2 0 2 2 3 3 2 1
16 17 14 13 13 12 12 12 10 14 14 14 13 12 11 10 11 10 10 9 9 8 9 8 6 8 10 11 13 12 12 10 8 7 6 5 5 5 5 6 6 6 5
16 16 17 17 15 13 11 12 12 13 11 12 11 12 10 11 11 10 11 11 12 12 15 17 16 15 14 15 14 13 12 10 10 11 11 10 9 8 8 8 7 7 6
14 13 15 16 16 16 15 15 15 13 11 12 12 12 12 13 13 12 14 14 15 15 15 15 14 13 14 14 15 15 14 14 13 13 11 10 10 8 7 6 6 4 3
12 13 13 11 13 15 16 17 17 14 11 12 13 14 17 16 15 15 16 16 14 12 13 15 15 15 14 13 12 12 11 10 9 8 7 6 5 5 6 6 5 4 5
12 11 9 9 10 11 13 14 14 15 13 12 13 14 17 18 16 14 12 10 11 9 15 15 15 12 12 11 10 9 9 8 6 6 6 6 6 5 4 4 5 5 6
13 13 11 10 9 8 8 8 8 9 14 16 15 13 12 12 11 11 9 8 12 13 14 13 12 10 9 8 7 6 6 7 6 5 6 6 5 4 5 5 5 3 5
10 10 11 11 10 9 8 8 7 7 10 10 10 10 8 6 5 5 6 9 11 11 10 10 10 9 7 7 9 8 8 7 6 4 4 5 4 4 3 2 3 4 1
13 11 9 8 8 7 7 7 6 5 4 4 5 8 4 3 5 6 7 8 8 8 7 6 6 6 6 6 6 5 3 3 3 3 3 3 3 3 3 2 3 2 3
8 8 8 7 7 6 7 6 6 5 6 6 6 5 4 3 4 3 5 6 5 5 4 2 4 4 5 4 3 3 1 2 2 2 1 3 4 2 2 2 1 2 7
7 7 6 7 4 4 5 5 4 5 5 6 5 5 4 3 2 2 4 4 4 4 3 2 2 3 2 2 2 1 1 1 1 1 2 5 3 1 3 3 5 1 5
6 6 6 4 5 5 2 3 5 4 3 1 1 2 1 1 2 2 3 2 2 2 1 1 1 1 1 0 0 1 3 3 2 1 1 1 2 3 3 2 3 6 6
6 6 5 8 6 3 6 7 7 3 2 2 2 1 2 3 2 1 1 1 1 1 1 2 1 0 2 3 3 2 2 3 4 3 3 4 5 4 5 4 5 5 3
4 3 3 5 3 4 4 3 1 1 1 2 1 1 2 1 2 3 2 1 1 3 2 1 3 2 3 3 3 4 4 5 5 5 5 6 5 2 4 2 6 5 3
6 4 3 2 2 1 1 3 4 3 3 3 3 2 2 2 3 5 4 3 2 2 4 4 3 3 6 6 5 5 6 6 6 5 6 7 7 7 7 6 7 7 3
Wind_Direction
206 200 193 204 206 200 206 196 193 204 217 217 198 202 215 222 218 218 217 217 225 225 235 233 229 228 236 237 238 237 233 237 244 244 238 237 233 249 251 260 264 254 259
200 199 200 204 205 202 204 193 205 209 214 202 196 202 203 199 201 212 215 214 224 226 223 228 232 234 241 240 246 244 243 247 241 243 241 245 245 238 247 256 259 265 264
234 210 215 206 201 200 200 199 209 212 192 187 194 198 196 206 213 213 212 217 228 228 229 234 233 237 242 245 247 247 250 256 252 240 248 248 256 248 251 260 264 266 269
251 234 214 195 199 195 194 199 198 190 184 184 186 191 197 205 209 214 217 221 230 233 232 235 235 238 241 242 242 245 251 252 248 250 248 249 256 252 250 256 259 266 274
212 211 204 203 195 191 187 198 196 197 190 185 184 192 192 189 191 195 202 207 208 213 218 229 235 238 236 231 232 236 238 241 243 246 248 248 253 251 257 263 264 273 276
185 193 193 191 181 183 198 192 196 197 197 192 192 193 186 200 196 199 201 205 214 217 221 226 231 226 228 221 229 229 235 237 235 243 260 261 265 270 275 279 279 272 264
104 142 164 165 174 177 179 186 184 186 193 195 191 193 201 209 207 207 201 199 207 215 216 219 216 224 225 232 233 235 234 236 241 244 244 255 259 265 266 266 257 254 260
53 66 104 131 159 175 187 189 184 183 189 189 191 197 208 217 223 223 222 219 228 230 225 232 235 240 241 243 248 249 248 249 251 251 252 255 257 258 257 260 265 272 283
48 49 40 44 99 143 154 181 188 188 195 195 197 198 204 211 222 228 226 230 233 235 237 239 238 235 237 233 232 236 239 247 249 252 256 256 260 263 265 268 273 277 274
46 44 47 42 47 63 57 74 140 159 168 172 179 180 192 204 217 224 226 230 231 231 234 238 242 244 249 250 253 256 263 262 259 263 263 266 269 269 271 273 273 280 282
49 55 59 62 62 63 66 61 77 96 102 100 101 87 75 79 190 220 215 219 220 217 218 228 238 251 256 262 260 244 253 245 242 250 258 265 276 287 299 303 299 287 274
44 47 50 59 60 69 74 72 68 82 86 91 89 82 68 75 87 81 105 125 153 176 172 168 146 77 60 139 172 158 160 167 167 167 178 162 32 24 44 64 75 66 75
40 49 54 60 70 73 67 71 70 62 65 69 68 74 85 77 76 85 87 101 113 119 118 109 100 105 103 98 99 107 113 115 120 128 128 120 114 108 104 104 100 87 68
30 35 39 43 51 62 72 67 68 65 62 67 71 71 70 75 88 93 98 94 100 107 112 109 107 104 102 104 108 107 105 106 105 101 99 95 93 90 85 77 66 67 32
30 42 36 32 42 50 60 63 63 65 66 73 78 88 88 91 89 103 113 115 117 119 112 105 101 97 94 94 96 97 99 99 96 96 92 87 77 73 79 91 87 74 74
50 47 51 48 35 49 62 66 63 63 75 90 98 98 100 97 104 111 110 112 114 116 108 96 91 89 88 87 89 92 94 94 94 96 95 87 87 84 70 77 88 86 58
45 47 48 57 72 66 46 44 53 60 66 82 97 106 106 104 98 91 94 105 100 103 93 97 96 91 90 85 80 79 87 93 94 97 98 100 89 97 93 97 101 82 65
42 40 50 55 59 66 80 88 79 73 79 77 78 87 96 103 103 98 83 89 86 82 86 87 86 81 81 89 94 92 94 99 92 91 95 100 97 91 72 56 49 74 88
42 53 43 44 54 58 69 79 83 99 104 100 87 66 63 87 88 76 72 75 78 81 82 90 96 94 87 89 79 78 89 86 80 70 85 98 91 55 83 98 69 52 93
25 42 46 44 47 49 60 63 52 45 59 94 120 99 60 39 72 76 81 86 90 92 87 97 104 109 101 91 115 110 110 114 108 69 72 83 103 110 47 44 47 21 350
37 32 43 48 57 58 63 65 50 32 46 74 110 112 93 62 65 74 103 109 105 115 122 128 139 135 135 129 115 154 184 139 167 135 111 83 74 71 58 356 110 72 338
35 29 37 40 56 75 64 76 91 88 56 42 57 83 88 69 77 66 85 114 131 141 151 162 115 135 139 150 184 205 200 211 165 278 158 126 135 354 123 343 339 243 292
32 27 7 56 40 16 18 112 99 60 56 75 354 356 7 129 99 76 87 79 106 160 79 119 75 119 144 230 14 328 328 327 311 220 267 227 217 210 206 253 324 329 338
27 29 31 24 30 32 57 36 50 71 96 49 37 56 56 42 37 75 147 127 73 59 64 100 140 103 332 336 336 357 332 315 320 313 298 259 272 294 263 264 246 272 331
23 25 15 13 14 34 17 2 27 42 173 162 142 95 54 12 309 310 337 75 355 358 3 4 326 337 285 304 329 319 321 313 310 304 297 290 295 268 295 284 293 325 273
353 10 8 345 345 351 354 342 333 323 326 344 349 340 327 274 282 314 315 344 340 315 304 311 315 310 305 329 320 318 315 310 304 298 285 277 285 283 287 281 279 296 315